Kissimmee, FL

10:54 AM EST on November 21, 2019 (GMT -0500)
Kissimmee Municipal

Weather History for KISM - August, 2019

Change the Weather History Date:

Tuesday, August 6, 2019

  Actual Average Record
Temperature  
Mean Temperature 82 °F -  
Max Temperature 90 °F 91 °F 96 °F (2007)
Min Temperature 75 °F 72 °F 65 °F (1961)
Cooling Degree Days 17    
Growing Degree Days 32 (Base 50)    
Moisture  
Dew Point 75 °F    
Average Humidity 87    
Maximum Humidity 100    
Minimum Humidity 62    
Precipitation  
Precipitation 0.00 in - - ()
Sea Level Pressure  
Sea Level Pressure 30.01 in    
Wind  
Wind Speed 4 mph (SSW)    
Max Wind Speed 12 mph    
Max Gust Speed -    
Visibility 10 miles    
Events Rain , Thunderstorm    
Averages and records for this station are not official NWS values.
T = Trace of Precipitation, MM = Missing Value Source: NWS Daily Summary

Daily Weather History Graph

Daily Weather History Graph

Search for Another Location

Airport or City:

Astronomy

Aug. 06, 2019 Rise Set
Actual Time 6:50 AM EDT 8:12 PM EDT
Civil Twilight 6:25 AM EDT 8:37 PM EDT
Nautical Twilight 5:55 AM EDT 9:07 PM EDT
Astronomical Twilight 5:24 AM EDT 9:38 PM EDT
Moon 12:43 PM EDT (8/6) No Moon Set
Length of Visible Light 14h 12m
Length of Day
13h 21m
Waxing Crescent, 38% of the Moon is Illuminated
Aug 6
Waxing Crescent
Aug 7
First Quarter
Aug 15
Full
Aug 23
Last Quarter
Aug 30
New

Hourly Weather History & Observations

Time (EDT) Temp. Heat Index Dew Point Humidity Pressure Visibility Wind Dir Wind Speed Gust Speed Precip Events Conditions
12:14 AM 75.2 °F - 75.2 °F 100% 30.04 in 10.0 mi South 4.6 mph - N/A   Scattered Clouds
12:23 AM 75.2 °F - 75.2 °F 100% 30.04 in 10.0 mi SSW 3.5 mph - N/A   Mostly Cloudy
12:56 AM 75.0 °F - 75.0 °F 100% 30.04 in 10.0 mi Calm Calm - N/A   Mostly Cloudy
1:12 AM 75.2 °F - 75.2 °F 100% 30.02 in 10.0 mi SSW 3.5 mph - N/A   Scattered Clouds
1:56 AM 75.0 °F - 73.9 °F 96% 30.02 in 10.0 mi Calm Calm - N/A   Clear
2:56 AM 75.0 °F - 73.9 °F 96% 30.01 in 10.0 mi SW 3.5 mph - N/A   Clear
3:56 AM 75.0 °F - 73.9 °F 96% 30.01 in 10.0 mi Calm Calm - N/A   Clear
4:56 AM 75.0 °F - 73.9 °F 96% 30.01 in 10.0 mi Calm Calm - N/A   Clear
5:56 AM 75.0 °F - 73.9 °F 96% 30.01 in 10.0 mi Calm Calm - N/A   Clear
6:56 AM 75.0 °F - 73.9 °F 96% 30.02 in 10.0 mi Calm Calm - N/A   Clear
8:56 AM 80.1 °F 85.8 °F 77.0 °F 90% 30.04 in 10.0 mi WSW 6.9 mph - N/A   Clear
9:56 AM 82.9 °F 92.8 °F 78.1 °F 85% 30.04 in 10.0 mi SW 4.6 mph - N/A   Scattered Clouds
10:35 AM 84.2 °F 94.1 °F 77.0 °F 79% 30.03 in 10.0 mi SW 6.9 mph - N/A   Mostly Cloudy
10:56 AM 84.0 °F 93.7 °F 77.0 °F 79% 30.04 in 10.0 mi SW 5.8 mph - N/A   Mostly Cloudy
11:38 AM 86.0 °F 96.9 °F 77.0 °F 74% 30.02 in 10.0 mi WSW 8.1 mph - N/A   Mostly Cloudy
11:56 AM 86.0 °F 96.9 °F 77.0 °F 74% 30.02 in 10.0 mi South 8.1 mph - N/A   Mostly Cloudy
12:41 PM 87.8 °F 97.6 °F 75.2 °F 66% 30.00 in 10.0 mi WSW 9.2 mph - N/A   Scattered Clouds
12:48 PM 89.6 °F 99.8 °F 75.2 °F 62% 30.00 in 10.0 mi SW 11.5 mph - N/A Thunderstorm Partly Cloudy
12:56 PM 89.1 °F 101.4 °F 77.0 °F 67% 30.01 in 10.0 mi West 8.1 mph - N/A Thunderstorm Mostly Cloudy
1:41 PM 87.8 °F 95.6 °F 73.4 °F 62% 29.99 in 10.0 mi Calm Calm - N/A Thunderstorm Thunderstorm
1:56 PM 82.9 °F 90.8 °F 75.9 °F 79% 29.98 in 10.0 mi NNE 4.6 mph - N/A Rain , Thunderstorm Light Thunderstorms and Rain
2:56 PM 77.0 °F - 75.0 °F 94% - 6.0 mi North - - N/A Rain , Thunderstorm Thunderstorms and Rain
3:51 PM 75.2 °F - 73.4 °F 94% 29.98 in 10.0 mi South 3.5 mph - N/A   Overcast
3:56 PM 75.0 °F - 72.0 °F 90% 29.98 in 10.0 mi SSE 3.5 mph - N/A   Overcast
4:56 PM 78.1 °F - 73.0 °F 84% 30.00 in 10.0 mi SSE 3.5 mph - N/A   Scattered Clouds
5:56 PM 79.0 °F - 73.9 °F 84% 30.00 in 10.0 mi SE 3.5 mph - N/A   Clear
6:56 PM 80.1 °F 85.1 °F 75.0 °F 85% 30.01 in 10.0 mi SSE 9.2 mph - N/A   Clear
7:56 PM 79.0 °F - 73.9 °F 84% 29.98 in 10.0 mi South 8.1 mph - N/A   Partly Cloudy
8:56 PM 78.1 °F - 73.0 °F 84% 30.00 in 10.0 mi South 4.6 mph - N/A   Scattered Clouds
9:56 PM 75.9 °F - 73.9 °F 94% 30.01 in 10.0 mi SW 6.9 mph - N/A   Clear
10:56 PM 77.0 °F - 73.9 °F 90% 30.02 in 10.0 mi NE 4.6 mph - N/A   Clear
11:56 PM 75.9 °F - 73.9 °F 94% 30.02 in 10.0 mi South 5.8 mph - N/A   Scattered Clouds